QPF
0.00 0.00 0.00 0.00 0.00 0.01 0.00 0.00 0.00 0.00 0.00 0.00 0.00 0.01 0.01 0.01 0.01 0.01 0.01 0.00 0.01 0.01 0.00 0.00 0.00 0.01 0.02 0.03 0.06 0.07 0.08 0.09 0.09 0.08 0.07 0.08 0.08 0.07 0.09 0.09 0.06 0.05 0.05 0.04
0.00 0.00 0.00 0.00 0.00 0.00 0.00 0.00 0.00 0.00 0.00 0.00 0.00 0.01 0.02 0.02 0.02 0.01 0.00 0.01 0.01 0.01 0.01 0.00 0.01 0.01 0.02 0.02 0.04 0.06 0.07 0.08 0.08 0.07 0.05 0.04 0.05 0.06 0.09 0.10 0.09 0.07 0.05 0.04
0.00 0.00 0.00 0.00 0.00 0.00 0.00 0.00 0.00 0.00 0.00 0.00 0.01 0.03 0.04 0.02 0.02 0.01 0.00 0.00 0.01 0.01 0.01 0.01 0.01 0.01 0.01 0.01 0.02 0.02 0.04 0.05 0.04 0.04 0.05 0.04 0.04 0.05 0.06 0.07 0.08 0.07 0.05 0.04
0.00 0.00 0.00 0.00 0.00 0.00 0.00 0.00 0.00 0.00 0.00 0.01 0.02 0.04 0.03 0.01 0.01 0.01 0.00 0.00 0.00 0.00 0.01 0.01 0.01 0.01 0.01 0.02 0.02 0.01 0.02 0.03 0.03 0.02 0.03 0.05 0.06 0.05 0.05 0.05 0.06 0.05 0.04 0.03
0.00 0.00 0.00 0.00 0.00 0.00 0.00 0.00 0.00 0.00 0.00 0.01 0.02 0.02 0.02 0.01 0.00 0.00 0.00 0.00 0.00 0.00 0.01 0.01 0.01 0.01 0.01 0.02 0.02 0.02 0.03 0.03 0.02 0.02 0.02 0.04 0.05 0.04 0.03 0.03 0.04 0.04 0.04 0.03
0.00 0.00 0.00 0.00 0.00 0.00 0.00 0.00 0.00 0.00 0.00 0.01 0.01 0.02 0.01 0.01 0.00 0.00 0.00 0.00 0.00 0.00 0.01 0.01 0.01 0.01 0.02 0.03 0.03 0.02 0.02 0.02 0.02 0.02 0.03 0.05 0.05 0.04 0.04 0.03 0.03 0.04 0.04 0.03
0.00 0.00 0.00 0.00 0.00 0.00 0.00 0.00 0.01 0.01 0.01 0.01 0.01 0.00 0.00 0.01 0.00 0.00 0.00 0.00 0.00 0.00 0.01 0.01 0.01 0.01 0.01 0.01 0.01 0.01 0.01 0.01 0.01 0.01 0.02 0.03 0.04 0.04 0.03 0.03 0.04 0.04 0.04 0.04
0.00 0.00 0.00 0.00 0.00 0.00 0.00 0.00 0.01 0.01 0.01 0.01 0.01 0.00 0.00 0.00 0.00 0.00 0.00 0.00 0.00 0.01 0.01 0.01 0.01 0.01 0.01 0.01 0.01 0.02 0.01 0.01 0.01 0.01 0.01 0.01 0.02 0.03 0.03 0.03 0.02 0.02 0.03 0.03
0.00 0.00 0.00 0.00 0.00 0.00 0.00 0.00 0.00 0.01 0.01 0.01 0.01 0.01 0.00 0.00 0.00 0.00 0.00 0.00 0.00 0.01 0.01 0.01 0.01 0.02 0.02 0.02 0.01 0.01 0.01 0.01 0.01 0.01 0.01 0.01 0.01 0.01 0.02 0.02 0.02 0.01 0.02 0.02
0.00 0.01 0.00 0.00 0.00 0.00 0.00 0.00 0.00 0.01 0.01 0.01 0.01 0.01 0.01 0.00 0.00 0.00 0.00 0.00 0.00 0.01 0.01 0.01 0.01 0.02 0.02 0.02 0.01 0.01 0.01 0.01 0.01 0.01 0.01 0.01 0.01 0.01 0.01 0.01 0.01 0.01 0.02 0.02
0.00 0.00 0.00 0.01 0.01 0.00 0.00 0.00 0.01 0.01 0.01 0.01 0.01 0.02 0.01 0.00 0.00 0.00 0.00 0.00 0.00 0.02 0.02 0.01 0.01 0.02 0.03 0.02 0.02 0.01 0.01 0.01 0.01 0.01 0.01 0.01 0.01 0.01 0.01 0.01 0.01 0.02 0.03 0.03
0.00 0.00 0.01 0.01 0.00 0.00 0.00 0.00 0.00 0.01 0.01 0.01 0.01 0.02 0.01 0.00 0.00 0.00 0.00 0.00 0.01 0.02 0.02 0.01 0.01 0.01 0.02 0.01 0.01 0.01 0.01 0.01 0.01 0.01 0.01 0.02 0.02 0.01 0.01 0.01 0.01 0.02 0.03 0.03
0.01 0.01 0.01 0.01 0.01 0.00 0.00 0.00 0.00 0.00 0.00 0.00 0.01 0.01 0.01 0.00 0.00 0.00 0.00 0.01 0.01 0.01 0.02 0.01 0.01 0.01 0.01 0.01 0.01 0.01 0.02 0.02 0.02 0.02 0.02 0.02 0.01 0.01 0.01 0.01 0.01 0.01 0.02 0.03
0.01 0.01 0.01 0.01 0.01 0.01 0.00 0.00 0.00 0.00 0.01 0.01 0.01 0.01 0.01 0.01 0.00 0.00 0.00 0.01 0.01 0.01 0.01 0.01 0.01 0.01 0.01 0.01 0.01 0.01 0.02 0.02 0.03 0.02 0.02 0.01 0.01 0.01 0.01 0.01 0.01 0.01 0.02 0.03
0.01 0.01 0.01 0.00 0.00 0.00 0.00 0.00 0.00 0.00 0.00 0.00 0.01 0.01 0.01 0.01 0.00 0.00 0.00 0.01 0.01 0.01 0.01 0.01 0.01 0.01 0.01 0.01 0.01 0.02 0.02 0.02 0.02 0.02 0.02 0.02 0.02 0.01 0.01 0.01 0.01 0.01 0.02 0.03
0.01 0.01 0.01 0.01 0.00 0.00 0.00 0.00 0.01 0.01 0.01 0.01 0.00 0.01 0.01 0.01 0.01 0.00 0.00 0.01 0.01 0.01 0.01 0.01 0.01 0.01 0.01 0.01 0.01 0.01 0.01 0.02 0.03 0.03 0.02 0.02 0.02 0.02 0.01 0.01 0.02 0.02 0.03 0.03
0.01 0.01 0.01 0.01 0.01 0.00 0.01 0.01 0.01 0.01 0.01 0.01 0.00 0.01 0.01 0.01 0.01 0.00 0.00 0.01 0.01 0.02 0.02 0.02 0.02 0.01 0.01 0.01 0.01 0.01 0.01 0.01 0.02 0.02 0.03 0.02 0.02 0.02 0.01 0.01 0.02 0.03 0.04 0.03
0.01 0.01 0.01 0.01 0.01 0.01 0.01 0.01 0.01 0.01 0.00 0.00 0.00 0.00 0.01 0.01 0.01 0.00 0.00 0.01 0.01 0.02 0.02 0.02 0.01 0.01 0.01 0.01 0.00 0.00 0.01 0.01 0.01 0.02 0.03 0.02 0.02 0.02 0.02 0.02 0.02 0.02 0.03 0.03
0.01 0.01 0.01 0.01 0.01 0.01 0.01 0.02 0.02 0.01 0.01 0.00 0.00 0.00 0.00 0.00 0.01 0.01 0.01 0.01 0.01 0.02 0.02 0.02 0.02 0.01 0.01 0.01 0.01 0.01 0.01 0.01 0.02 0.02 0.03 0.03 0.03 0.03 0.02 0.01 0.02 0.03 0.03 0.04
0.01 0.01 0.01 0.02 0.02 0.01 0.01 0.01 0.01 0.01 0.01 0.00 0.00 0.00 0.01 0.01 0.01 0.01 0.01 0.01 0.01 0.02 0.03 0.03 0.03 0.03 0.02 0.02 0.02 0.03 0.03 0.03 0.03 0.03 0.03 0.03 0.03 0.03 0.03 0.02 0.02 0.03 0.03 0.04
0.02 0.01 0.01 0.02 0.03 0.02 0.00 0.01 0.01 0.02 0.02 0.00 0.00 0.00 0.01 0.01 0.01 0.01 0.01 0.01 0.02 0.02 0.02 0.03 0.03 0.03 0.02 0.02 0.02 0.03 0.06 0.07 0.06 0.04 0.03 0.03 0.03 0.03 0.03 0.02 0.02 0.01 0.02 0.02
0.01 0.02 0.01 0.02 0.02 0.02 0.01 0.01 0.02 0.02 0.01 0.00 0.00 0.01 0.01 0.01 0.01 0.01 0.01 0.02 0.02 0.02 0.02 0.02 0.02 0.02 0.02 0.02 0.02 0.02 0.05 0.06 0.05 0.04 0.03 0.02 0.03 0.05 0.04 0.03 0.02 0.01 0.01 0.01
0.01 0.02 0.02 0.02 0.02 0.01 0.01 0.01 0.01 0.02 0.02 0.01 0.01 0.00 0.00 0.01 0.01 0.01 0.01 0.02 0.02 0.02 0.02 0.01 0.01 0.01 0.01 0.02 0.02 0.03 0.05 0.06 0.05 0.05 0.04 0.04 0.03 0.03 0.06 0.04 0.02 0.02 0.02 0.02
0.01 0.01 0.01 0.01 0.01 0.01 0.01 0.01 0.00 0.01 0.02 0.02 0.01 0.00 0.00 0.00 0.01 0.01 0.01 0.01 0.02 0.02 0.01 0.01 0.01 0.01 0.01 0.02 0.03 0.03 0.04 0.05 0.04 0.05 0.05 0.03 0.04 0.04 0.05 0.04 0.03 0.03 0.02 0.02
0.01 0.01 0.01 0.01 0.01 0.01 0.01 0.01 0.01 0.01 0.01 0.02 0.01 0.01 0.00 0.00 0.01 0.02 0.02 0.01 0.02 0.02 0.01 0.01 0.01 0.01 0.01 0.01 0.02 0.02 0.03 0.04 0.04 0.04 0.04 0.04 0.04 0.05 0.04 0.05 0.05 0.03 0.02 0.02
0.02 0.01 0.01 0.02 0.02 0.02 0.02 0.01 0.01 0.02 0.03 0.03 0.03 0.02 0.01 0.01 0.02 0.02 0.02 0.03 0.02 0.02 0.01 0.02 0.02 0.01 0.01 0.02 0.01 0.01 0.02 0.02 0.03 0.03 0.03 0.04 0.04 0.05 0.05 0.05 0.06 0.07 0.05 0.03
MSLP
1008.02 1008.37 1008.60 1008.71 1008.72 1008.66 1008.56 1008.43 1008.31 1008.19 1008.08 1007.98 1007.90 1007.83 1007.78 1007.77 1007.79 1007.85 1007.94 1008.02 1008.07 1008.06 1007.96 1007.76 1007.46 1007.09 1006.68 1006.29 1005.95 1005.70 1005.58 1005.58 1005.69 1005.88 1006.11 1006.36 1006.60 1006.81 1006.99 1007.17 1007.35 1007.55 1007.79 1008.08
1008.19 1008.49 1008.69 1008.80 1008.84 1008.82 1008.76 1008.66 1008.54 1008.40 1008.23 1008.04 1007.84 1007.65 1007.50 1007.42 1007.41 1007.49 1007.63 1007.80 1007.97 1008.08 1008.09 1007.98 1007.76 1007.43 1007.05 1006.66 1006.32 1006.06 1005.92 1005.90 1005.99 1006.14 1006.32 1006.50 1006.66 1006.78 1006.87 1006.95 1007.05 1007.20 1007.42 1007.71
1008.32 1008.56 1008.74 1008.86 1008.94 1008.97 1008.96 1008.91 1008.80 1008.63 1008.39 1008.09 1007.75 1007.43 1007.15 1006.97 1006.91 1006.98 1007.15 1007.41 1007.68 1007.91 1008.04 1008.04 1007.91 1007.66 1007.33 1006.98 1006.66 1006.42 1006.29 1006.27 1006.33 1006.46 1006.59 1006.71 1006.77 1006.79 1006.78 1006.76 1006.77 1006.86 1007.04 1007.32
1008.38 1008.57 1008.73 1008.87 1008.99 1009.10 1009.16 1009.16 1009.07 1008.87 1008.57 1008.16 1007.70 1007.22 1006.81 1006.52 1006.38 1006.41 1006.61 1006.92 1007.27 1007.61 1007.86 1007.98 1007.95 1007.79 1007.53 1007.23 1006.96 1006.75 1006.64 1006.63 1006.69 1006.79 1006.88 1006.93 1006.91 1006.83 1006.71 1006.59 1006.51 1006.52 1006.65 1006.92
1008.38 1008.51 1008.66 1008.83 1009.01 1009.18 1009.32 1009.38 1009.33 1009.12 1008.77 1008.27 1007.69 1007.09 1006.54 1006.13 1005.91 1005.90 1006.09 1006.42 1006.85 1007.28 1007.63 1007.85 1007.92 1007.85 1007.67 1007.44 1007.22 1007.05 1006.96 1006.96 1007.01 1007.09 1007.14 1007.12 1007.03 1006.86 1006.64 1006.41 1006.25 1006.19 1006.27 1006.51
1008.35 1008.44 1008.57 1008.76 1008.99 1009.23 1009.44 1009.57 1009.55 1009.36 1008.98 1008.43 1007.76 1007.05 1006.39 1005.87 1005.57 1005.50 1005.66 1006.00 1006.47 1006.96 1007.39 1007.70 1007.87 1007.88 1007.78 1007.62 1007.44 1007.31 1007.24 1007.23 1007.27 1007.32 1007.32 1007.25 1007.08 1006.83 1006.52 1006.21 1005.97 1005.84 1005.87 1006.08
1008.35 1008.40 1008.52 1008.71 1008.97 1009.26 1009.53 1009.71 1009.73 1009.56 1009.17 1008.59 1007.86 1007.08 1006.34 1005.74 1005.36 1005.23 1005.35 1005.68 1006.16 1006.68 1007.17 1007.55 1007.80 1007.89 1007.86 1007.75 1007.62 1007.51 1007.45 1007.43 1007.45 1007.45 1007.40 1007.27 1007.04 1006.72 1006.34 1005.96 1005.64 1005.45 1005.42 1005.59
1008.47 1008.47 1008.56 1008.74 1009.00 1009.30 1009.58 1009.78 1009.83 1009.68 1009.30 1008.71 1007.97 1007.16 1006.37 1005.71 1005.26 1005.07 1005.15 1005.44 1005.90 1006.43 1006.96 1007.39 1007.69 1007.85 1007.88 1007.83 1007.74 1007.64 1007.58 1007.54 1007.52 1007.48 1007.38 1007.19 1006.90 1006.52 1006.08 1005.64 1005.26 1005.01 1004.93 1005.05
1008.76 1008.71 1008.75 1008.88 1009.09 1009.35 1009.60 1009.79 1009.83 1009.68 1009.32 1008.74 1008.01 1007.20 1006.39 1005.71 1005.22 1004.97 1004.99 1005.23 1005.66 1006.17 1006.70 1007.16 1007.51 1007.72 1007.82 1007.81 1007.76 1007.68 1007.61 1007.55 1007.49 1007.40 1007.24 1007.00 1006.66 1006.23 1005.74 1005.26 1004.83 1004.52 1004.39 1004.45
1009.23 1009.13 1009.09 1009.13 1009.24 1009.41 1009.58 1009.70 1009.71 1009.54 1009.18 1008.64 1007.93 1007.14 1006.36 1005.66 1005.15 1004.86 1004.81 1005.00 1005.36 1005.84 1006.35 1006.82 1007.20 1007.46 1007.61 1007.67 1007.65 1007.60 1007.53 1007.46 1007.36 1007.22 1007.02 1006.73 1006.34 1005.87 1005.35 1004.83 1004.36 1004.01 1003.81 1003.81
1009.85 1009.68 1009.54 1009.46 1009.44 1009.46 1009.50 1009.51 1009.44 1009.24 1008.88 1008.36 1007.70 1006.96 1006.21 1005.53 1005.01 1004.68 1004.57 1004.69 1004.98 1005.40 1005.87 1006.33 1006.73 1007.04 1007.25 1007.36 1007.40 1007.39 1007.34 1007.26 1007.13 1006.96 1006.72 1006.39 1005.98 1005.48 1004.94 1004.39 1003.89 1003.50 1003.25 1003.17
1010.52 1010.27 1010.02 1009.79 1009.61 1009.46 1009.34 1009.21 1009.04 1008.78 1008.42 1007.92 1007.32 1006.65 1005.96 1005.32 1004.80 1004.44 1004.28 1004.32 1004.53 1004.87 1005.29 1005.73 1006.14 1006.48 1006.74 1006.92 1007.03 1007.06 1007.04 1006.97 1006.85 1006.66 1006.39 1006.04 1005.60 1005.09 1004.54 1003.97 1003.45 1003.02 1002.71 1002.58
1011.11 1010.79 1010.43 1010.06 1009.70 1009.37 1009.08 1008.81 1008.54 1008.23 1007.85 1007.40 1006.86 1006.27 1005.65 1005.07 1004.57 1004.20 1003.99 1003.94 1004.06 1004.32 1004.67 1005.06 1005.47 1005.83 1006.14 1006.39 1006.56 1006.65 1006.68 1006.63 1006.52 1006.33 1006.05 1005.69 1005.24 1004.73 1004.17 1003.60 1003.06 1002.59 1002.25 1002.05
1011.52 1011.14 1010.68 1010.18 1009.67 1009.19 1008.75 1008.35 1007.99 1007.64 1007.27 1006.87 1006.41 1005.92 1005.39 1004.88 1004.42 1004.04 1003.78 1003.66 1003.69 1003.84 1004.11 1004.44 1004.81 1005.18 1005.53 1005.82 1006.05 1006.20 1006.28 1006.27 1006.18 1006.00 1005.73 1005.37 1004.92 1004.41 1003.85 1003.28 1002.73 1002.24 1001.86 1001.61
1011.69 1011.26 1010.73 1010.14 1009.52 1008.93 1008.38 1007.90 1007.48 1007.12 1006.78 1006.44 1006.09 1005.70 1005.28 1004.85 1004.43 1004.06 1003.76 1003.57 1003.50 1003.54 1003.71 1003.96 1004.28 1004.62 1004.97 1005.29 1005.56 1005.77 1005.89 1005.92 1005.86 1005.70 1005.44 1005.09 1004.65 1004.15 1003.59 1003.03 1002.47 1001.97 1001.55 1001.25
1011.62 1011.16 1010.60 1009.96 1009.30 1008.64 1008.05 1007.53 1007.10 1006.76 1006.48 1006.22 1005.97 1005.69 1005.38 1005.04 1004.67 1004.31 1003.98 1003.72 1003.55 1003.48 1003.53 1003.68 1003.91 1004.21 1004.53 1004.85 1005.14 1005.38 1005.53 1005.60 1005.57 1005.43 1005.19 1004.85 1004.43 1003.94 1003.40 1002.84 1002.28 1001.77 1001.33 1000.99
1011.36 1010.90 1010.35 1009.72 1009.06 1008.41 1007.82 1007.32 1006.93 1006.63 1006.42 1006.25 1006.10 1005.93 1005.72 1005.46 1005.14 1004.79 1004.44 1004.11 1003.84 1003.66 1003.58 1003.61 1003.74 1003.95 1004.22 1004.51 1004.79 1005.03 1005.21 1005.30 1005.29 1005.18 1004.96 1004.65 1004.25 1003.78 1003.26 1002.71 1002.17 1001.65 1001.20 1000.84
1011.01 1010.58 1010.06 1009.48 1008.88 1008.29 1007.76 1007.32 1006.98 1006.75 1006.61 1006.52 1006.46 1006.38 1006.25 1006.05 1005.77 1005.42 1005.04 1004.65 1004.29 1003.99 1003.78 1003.68 1003.70 1003.80 1003.99 1004.23 1004.48 1004.71 1004.90 1005.01 1005.02 1004.94 1004.75 1004.47 1004.10 1003.66 1003.17 1002.64 1002.12 1001.62 1001.16 1000.78
1010.68 1010.28 1009.83 1009.33 1008.82 1008.32 1007.87 1007.50 1007.23 1007.06 1006.97 1006.94 1006.93 1006.90 1006.82 1006.65 1006.39 1006.04 1005.63 1005.18 1004.74 1004.33 1004.01 1003.79 1003.68 1003.69 1003.79 1003.96 1004.17 1004.38 1004.56 1004.68 1004.72 1004.67 1004.52 1004.28 1003.95 1003.56 1003.10 1002.62 1002.13 1001.65 1001.21 1000.84
1010.43 1010.08 1009.70 1009.29 1008.88 1008.48 1008.11 1007.81 1007.59 1007.45 1007.38 1007.35 1007.35 1007.32 1007.24 1007.08 1006.81 1006.45 1006.01 1005.52 1005.01 1004.53 1004.11 1003.79 1003.58 1003.49 1003.51 1003.62 1003.79 1003.98 1004.16 1004.29 1004.36 1004.35 1004.25 1004.06 1003.79 1003.44 1003.05 1002.62 1002.17 1001.74 1001.34 1000.99
1010.30 1009.99 1009.67 1009.35 1009.02 1008.69 1008.39 1008.13 1007.91 1007.76 1007.66 1007.59 1007.53 1007.46 1007.35 1007.15 1006.87 1006.49 1006.03 1005.51 1004.97 1004.44 1003.96 1003.58 1003.30 1003.15 1003.11 1003.17 1003.31 1003.49 1003.67 1003.83 1003.93 1003.97 1003.92 1003.78 1003.57 1003.29 1002.96 1002.59 1002.21 1001.84 1001.50 1001.20
1010.25 1009.97 1009.71 1009.44 1009.17 1008.88 1008.60 1008.32 1008.07 1007.84 1007.65 1007.49 1007.34 1007.18 1007.00 1006.75 1006.43 1006.04 1005.58 1005.07 1004.53 1004.01 1003.52 1003.12 1002.83 1002.65 1002.58 1002.62 1002.74 1002.92 1003.11 1003.29 1003.43 1003.51 1003.51 1003.43 1003.28 1003.07 1002.80 1002.51 1002.20 1001.90 1001.63 1001.40
1010.25 1009.99 1009.75 1009.50 1009.24 1008.95 1008.63 1008.29 1007.94 1007.60 1007.27 1006.97 1006.69 1006.42 1006.14 1005.84 1005.50 1005.12 1004.68 1004.22 1003.73 1003.26 1002.83 1002.47 1002.20 1002.03 1001.97 1002.01 1002.14 1002.32 1002.52 1002.72 1002.88 1002.99 1003.04 1003.01 1002.91 1002.75 1002.55 1002.32 1002.09 1001.87 1001.67 1001.52
1010.25 1009.99 1009.74 1009.49 1009.19 1008.84 1008.43 1007.97 1007.48 1006.98 1006.49 1006.03 1005.60 1005.21 1004.85 1004.51 1004.17 1003.82 1003.46 1003.08 1002.70 1002.33 1002.00 1001.72 1001.52 1001.40 1001.38 1001.45 1001.58 1001.76 1001.97 1002.17 1002.35 1002.47 1002.53 1002.53 1002.46 1002.35 1002.19 1002.02 1001.85 1001.70 1001.58 1001.52
1010.23 1009.95 1009.68 1009.37 1009.00 1008.55 1008.01 1007.40 1006.74 1006.06 1005.40 1004.77 1004.20 1003.71 1003.29 1002.93 1002.62 1002.35 1002.09 1001.85 1001.61 1001.39 1001.20 1001.04 1000.94 1000.90 1000.93 1001.02 1001.16 1001.34 1001.54 1001.72 1001.88 1001.99 1002.04 1002.03 1001.97 1001.87 1001.74 1001.61 1001.49 1001.40 1001.35 1001.36
1010.19 1009.89 1009.57 1009.19 1008.72 1008.13 1007.45 1006.67 1005.83 1004.97 1004.14 1003.37 1002.69 1002.13 1001.68 1001.35 1001.11 1000.95 1000.84 1000.76 1000.70 1000.65 1000.61 1000.59 1000.60 1000.64 1000.71 1000.83 1000.97 1001.12 1001.28 1001.42 1001.53 1001.60 1001.61 1001.58 1001.50 1001.39 1001.27 1001.16 1001.07 1001.02 1001.02 1001.08
Thickness
5773 5770 5770 5778 5783 5785 5782 5779 5777 5781 5787 5782 5778 5778 5783 5788 5788 5787 5787 5788 5787 5786 5787 5786 5784 5781 5777 5774 5770 5767 5764 5761 5759 5756 5754 5752 5751 5750 5749 5747 5745 5744 5743 5741
5759 5762 5777 5782 5780 5776 5774 5770 5772 5776 5781 5775 5772 5773 5781 5783 5784 5786 5785 5784 5785 5783 5782 5780 5779 5777 5774 5771 5767 5765 5762 5760 5758 5756 5753 5752 5751 5749 5747 5745 5742 5741 5739 5738
5757 5768 5775 5770 5767 5764 5767 5767 5769 5767 5771 5771 5765 5763 5772 5779 5783 5784 5785 5785 5785 5782 5779 5776 5774 5773 5771 5768 5765 5763 5759 5757 5756 5754 5752 5749 5746 5745 5742 5740 5738 5737 5737 5736
5758 5768 5763 5761 5762 5763 5759 5773 5771 5766 5759 5761 5761 5753 5768 5775 5773 5776 5779 5781 5781 5781 5778 5774 5772 5769 5768 5766 5764 5761 5757 5754 5753 5751 5750 5746 5743 5740 5739 5737 5736 5735 5734 5733
5751 5759 5756 5755 5763 5765 5764 5773 5769 5764 5759 5757 5759 5751 5765 5773 5766 5771 5775 5777 5778 5778 5776 5772 5770 5768 5766 5765 5762 5759 5754 5751 5749 5748 5746 5743 5741 5739 5738 5735 5733 5732 5731 5730
5755 5762 5761 5760 5766 5767 5766 5763 5761 5760 5759 5741 5755 5749 5755 5769 5769 5770 5773 5774 5774 5774 5773 5770 5769 5767 5763 5762 5759 5756 5751 5747 5746 5744 5742 5740 5737 5736 5733 5731 5730 5729 5729 5728
5741 5750 5757 5761 5752 5756 5756 5746 5736 5734 5737 5743 5760 5749 5755 5769 5772 5770 5768 5769 5771 5770 5769 5767 5765 5763 5760 5758 5755 5752 5748 5743 5741 5740 5738 5736 5734 5732 5730 5729 5728 5728 5727 5726
5729 5733 5749 5754 5751 5748 5750 5750 5735 5727 5734 5748 5748 5745 5759 5768 5769 5768 5767 5767 5766 5765 5765 5764 5762 5760 5757 5754 5751 5748 5745 5741 5738 5736 5734 5732 5731 5731 5730 5727 5728 5726 5726 5725
5731 5732 5749 5752 5756 5753 5745 5748 5759 5745 5743 5739 5746 5750 5754 5759 5758 5759 5760 5759 5758 5759 5759 5759 5758 5756 5753 5750 5747 5745 5741 5737 5735 5734 5731 5729 5728 5727 5726 5724 5723 5724 5722 5722
5735 5724 5739 5746 5748 5749 5753 5751 5743 5734 5720 5721 5735 5739 5745 5746 5749 5751 5752 5752 5753 5753 5753 5752 5751 5750 5748 5747 5744 5741 5737 5734 5733 5731 5728 5727 5725 5723 5722 5722 5720 5719 5718 5717
5731 5719 5726 5732 5730 5735 5736 5736 5737 5737 5736 5722 5721 5736 5753 5750 5749 5747 5748 5749 5748 5748 5747 5746 5745 5745 5743 5741 5739 5735 5733 5730 5728 5727 5725 5723 5722 5720 5719 5718 5716 5714 5713 5712
5723 5719 5716 5726 5738 5742 5738 5736 5733 5720 5721 5727 5725 5732 5749 5749 5748 5745 5743 5742 5742 5742 5742 5742 5740 5738 5736 5735 5733 5731 5728 5726 5725 5724 5721 5719 5718 5717 5715 5714 5712 5710 5708 5708
5713 5706 5699 5707 5716 5724 5725 5730 5731 5729 5724 5721 5718 5726 5740 5740 5738 5738 5736 5735 5734 5733 5734 5734 5732 5731 5729 5728 5727 5726 5724 5722 5721 5719 5717 5715 5714 5713 5711 5709 5707 5706 5704 5703
5708 5702 5699 5698 5708 5718 5715 5720 5723 5720 5716 5717 5722 5725 5729 5729 5728 5728 5728 5728 5727 5726 5726 5726 5724 5723 5723 5722 5720 5719 5718 5717 5716 5714 5713 5710 5710 5708 5706 5705 5703 5701 5700 5698
5700 5694 5700 5705 5712 5713 5712 5713 5716 5714 5718 5716 5721 5721 5724 5724 5723 5722 5722 5722 5720 5718 5718 5717 5716 5716 5716 5715 5714 5714 5713 5711 5710 5709 5707 5706 5705 5704 5702 5700 5698 5696 5694 5694
5691 5687 5692 5693 5702 5704 5703 5708 5710 5711 5714 5714 5714 5713 5723 5720 5719 5715 5714 5714 5712 5711 5710 5710 5709 5709 5708 5707 5707 5707 5706 5705 5704 5703 5702 5701 5700 5698 5696 5694 5692 5690 5688 5687
5683 5679 5678 5683 5692 5692 5688 5700 5704 5705 5709 5707 5704 5707 5710 5707 5706 5705 5704 5704 5704 5705 5704 5703 5702 5701 5700 5700 5700 5699 5699 5699 5698 5697 5696 5695 5693 5692 5691 5689 5687 5684 5682 5681
5671 5670 5674 5677 5674 5664 5690 5701 5701 5698 5698 5701 5699 5700 5700 5698 5699 5699 5698 5697 5696 5697 5696 5696 5695 5694 5694 5694 5694 5694 5693 5692 5692 5691 5690 5689 5687 5686 5684 5682 5680 5678 5676 5675
5670 5664 5666 5668 5666 5673 5683 5687 5688 5685 5684 5691 5690 5690 5690 5690 5690 5689 5689 5689 5688 5687 5688 5687 5688 5688 5687 5687 5688 5688 5687 5686 5684 5683 5682 5681 5680 5679 5677 5675 5672 5671 5669 5668
5660 5660 5659 5660 5655 5658 5673 5681 5684 5678 5672 5683 5683 5680 5680 5680 5679 5680 5680 5680 5679 5679 5679 5678 5679 5680 5679 5680 5681 5680 5679 5677 5676 5675 5675 5674 5673 5671 5669 5667 5665 5664 5662 5661
5648 5648 5651 5652 5651 5663 5669 5673 5672 5659 5665 5674 5676 5674 5673 5671 5672 5671 5671 5671 5670 5669 5669 5670 5671 5671 5671 5672 5672 5671 5671 5668 5668 5668 5668 5667 5665 5664 5662 5660 5658 5657 5656 5655
5645 5646 5646 5649 5645 5651 5660 5661 5658 5658 5663 5666 5666 5666 5663 5662 5662 5662 5662 5661 5662 5661 5661 5662 5662 5662 5663 5663 5664 5663 5661 5661 5661 5661 5659 5658 5657 5656 5655 5652 5651 5650 5648 5647
5642 5643 5646 5645 5646 5649 5653 5653 5654 5656 5655 5655 5656 5656 5655 5654 5654 5654 5653 5653 5654 5653 5653 5654 5654 5654 5654 5655 5655 5654 5653 5654 5654 5652 5651 5649 5648 5647 5647 5645 5644 5643 5641 5641
5636 5636 5637 5636 5641 5643 5645 5647 5647 5648 5648 5648 5648 5648 5647 5646 5646 5646 5646 5646 5646 5646 5647 5647 5647 5646 5645 5645 5646 5645 5645 5645 5646 5644 5642 5642 5641 5640 5639 5638 5638 5637 5636 5635
5628 5627 5628 5629 5633 5635 5637 5639 5640 5639 5639 5639 5639 5640 5640 5639 5639 5639 5639 5639 5640 5640 5640 5639 5638 5637 5637 5637 5638 5638 5637 5637 5637 5636 5635 5635 5635 5634 5632 5631 5629 5629 5628 5627
5623 5622 5621 5623 5626 5626 5628 5631 5632 5630 5630 5631 5631 5630 5632 5632 5631 5632 5632 5632 5632 5632 5632 5631 5630 5631 5630 5630 5630 5630 5630 5630 5629 5629 5628 5629 5628 5626 5626 5624 5622 5617 5617 5614